Hulianwang W. Digui 03-07

operational
NORAD ID: 63693 Int'l Des: 2025-086 Owner: ZXW Country: CN Constellation: xingwang
LEOCIRCULARPOLARONEWEB_TYPE

About Hulianwang W. Digui 03-07

Description loading...

Live Position

Loading 3D Globe...

Upcoming Passes

Altitude History

Altitude vs Time

uPlot chart will show altitude changes over time

Two-Line Element Set

1 63693U 25086G 25315.24238240 .00000078 00000-0 14656-3 0 9999
2 63693 86.5124 26.5218 0002209 107.4095 252.7281 13.24419656 26015
Epoch: Nov 11, 2025 • Age: 9 hours

Current Status

Altitude 1172.6 km
Velocity 7.27 km/s
Sub-Earth Point -7.12°S, 112.25°E
Launch Date Apr 28, 2025
Age 0.5 years
Type other

Technical Details

Classification Payload
Mass 800.00 kg
Dry Mass 800.00 kg
Total Mass 800.00 kg
Length 3.00 m
Diameter 1.00 m
Span 10.00 m
Shape Box + 2 Pan
Manufacturer CAST
Bus Type Guowang C
Phase Status In Orbit
Owner/State ZXW/CN

Large Constellations

Loading constellations...